TimeCDT,TemperatureF,Dew PointF,Humidity,Sea Level PressureIn,VisibilityMPH,Wind Direction,Wind SpeedMPH,Gust SpeedMPH,PrecipitationIn,Events,Conditions,WindDirDegrees,DateUTC
12:54 AM,72.0,64.9,78,30.06,8.0,SSW,5.8,-,N/A,,Clear,210,2013-08-22 05:54:00
1:54 AM,71.1,64.0,78,30.06,8.0,SSW,5.8,-,N/A,,Clear,210,2013-08-22 06:54:00
2:54 AM,72.0,64.0,76,30.06,9.0,SW,3.5,-,N/A,,Clear,230,2013-08-22 07:54:00
3:54 AM,70.0,64.9,84,30.07,8.0,SW,5.8,-,N/A,,Clear,220,2013-08-22 08:54:00
4:54 AM,71.1,64.9,81,30.07,8.0,Calm,Calm,-,N/A,,Scattered Clouds,0,2013-08-22 09:54:00
5:54 AM,69.1,64.9,87,30.04,7.0,SW,9.2,-,N/A,,Clear,220,2013-08-22 10:54:00
6:54 AM,70.0,64.9,84,30.07,6.0,SW,4.6,-,N/A,,Haze,220,2013-08-22 11:54:00
7:54 AM,73.0,66.0,79,30.09,7.0,WSW,6.9,-,N/A,,Clear,240,2013-08-22 12:54:00
8:54 AM,77.0,66.9,71,30.09,8.0,WSW,5.8,-,N/A,,Clear,240,2013-08-22 13:54:00
9:54 AM,81.0,68.0,65,30.09,9.0,Variable,4.6,-,N/A,,Clear,0,2013-08-22 14:54:00
10:54 AM,84.9,69.1,59,30.10,8.0,Variable,3.5,-,N/A,,Partly Cloudy,0,2013-08-22 15:54:00
11:54 AM,87.1,70.0,57,30.08,9.0,NNW,5.8,-,N/A,,Scattered Clouds,330,2013-08-22 16:54:00
12:54 PM,86.0,71.1,61,30.08,9.0,NE,10.4,-,N/A,,Partly Cloudy,40,2013-08-22 17:54:00
1:54 PM,86.0,70.0,59,30.08,9.0,NE,9.2,-,N/A,,Partly Cloudy,40,2013-08-22 18:54:00
2:54 PM,86.0,70.0,59,30.08,9.0,NE,12.7,17.3,N/A,,Scattered Clouds,50,2013-08-22 19:54:00
3:06 PM,75.2,64.4,69,30.10,8.0,NNE,23.0,34.5,N/A,Thunderstorm,Mostly Cloudy,30,2013-08-22 20:06:00
3:54 PM,75.0,64.0,69,30.07,10.0,NE,11.5,20.7,N/A,Thunderstorm,Partly Cloudy,50,2013-08-22 20:54:00
4:03 PM,75.2,64.4,69,30.09,10.0,NE,10.4,17.3,N/A,,Clear,40,2013-08-22 21:03:00
4:54 PM,77.0,64.9,66,30.05,10.0,East,12.7,-,N/A,,Clear,90,2013-08-22 21:54:00
5:54 PM,75.9,64.9,69,30.04,10.0,ESE,8.1,-,N/A,,Clear,110,2013-08-22 22:54:00
6:54 PM,75.9,66.0,71,30.04,10.0,SE,5.8,-,N/A,,Clear,140,2013-08-22 23:54:00
7:54 PM,73.9,64.9,73,30.04,10.0,Calm,Calm,-,N/A,,Clear,0,2013-08-23 00:54:00
8:54 PM,70.0,66.0,87,30.06,10.0,Calm,Calm,-,N/A,,Clear,0,2013-08-23 01:54:00
9:54 PM,71.1,66.0,84,30.07,10.0,Calm,Calm,-,N/A,,Overcast,0,2013-08-23 02:54:00
10:54 PM,71.1,66.9,87,30.08,10.0,NE,10.4,-,N/A,,Overcast,40,2013-08-23 03:54:00
11:54 PM,70.0,66.0,87,30.09,10.0,NE,4.6,-,N/A,,Partly Cloudy,40,2013-08-23 04:54:00